Regional Weather Roundup
Issued by NWS

Home | Current Version | Previous Version | Text Only | Print | Product List | Glossary Off
Versions: 1 2 3 4 5 6 7 8 9 10 11 12 13 14 15 16 17 18 19 20 21 22 23 24 25 26 27 28 29 30 31 32 33 34 35 36 37 38 39 40 41 42 43 44 45 46 47 48 49 50

000
ASUS43 KDMX 310107
RWRIA

WEATHER ROUNDUP FOR IOWA
NATIONAL WEATHER SERVICE DES MOINES IA
800 PM CDT SAT AUG 30 2014

NOTE: "FAIR" INDICATES FEW OR NO CLOUDS BELOW 12,000 FEET WITH NO
SIGNIFICANT WEATHER AND/OR OBSTRUCTIONS TO VISIBILITY.

* - THESE STATIONS ARE NOT NWS STATIONS...THUS NOT UNDER NWS
QUALITY CONTROL.  THEY ALSO DO NOT REPORT WEATHER SUCH
AS PRECIPITATION OR FOG.

IAZ001>003-012>014-020>022-031>034-043>046-310200-
   NORTHWEST IOWA

CITY           SKY/WX    TMP DP  RH WIND       PRES   REMARKS
CARROLL *      CLEAR     68  64  88 CALM      29.88S
CHEROKEE *     CLEAR     68  64  88 S3        29.87S
DENISON *      CLEAR     70  68  94 CALM      29.87R
LE MARS *      CLEAR     70  64  83 SE5       29.86F
ORANGE CITY *  CLEAR     70  63  78 S5        29.87S
SHELDON *      CLEAR     66  64  94 S5        29.86S
SIOUX CITY     CLEAR     71  63  75 SE7       29.85F
SPENCER        CLEAR     69  64  84 SW5       29.87S
STORM LAKE *   CLEAR     66  66 100 S5        29.88S
$$

IAZ055>058-069>071-079>083-090>094-310200-
   SOUTHWEST IOWA

CITY           SKY/WX    TMP DP  RH WIND       PRES   REMARKS
ATLANTIC *     CLEAR     73  68  83 CALM      29.88S
AUDUBON *      CLEAR     72  66  83 CALM      29.90S
CLARINDA *     CLEAR     73  70  88 CALM      29.89S
COUNCIL BLFS * CLEAR     73  68  83 SE3       29.87S
CRESTON *      CLEAR     75  66  73 CALM      29.91R
HARLAN  *      CLEAR     72  68  88 CALM      29.92S
LAMONI         CLEAR     78  67  68 SW3       29.90R HX  80
RED OAK *      CLEAR     73  68  83 CALM      29.88S
SHENANDOAH *   CLEAR     77  70  78 E3        29.88R
$$

IAZ047>049-059>061-072>074-084-310200-
   CENTRAL IOWA

CITY           SKY/WX    TMP DP  RH WIND       PRES   REMARKS
AMES           CLEAR     70  67  90 SW6       29.88R
ANKENY *       CLEAR     72  64  78 W6        29.88R
CHARITON *     CLEAR     77  70  78 SW3       29.89R
DES MOINES     PTCLDY    75  66  73 NW5       29.87S
GRINNELL*      MOCLDY    75  68  78 CALM      29.89S
KNOXVILLE *    PTCLDY    77  68  73 CALM      29.87R
MARSHALLTOWN   CLEAR     73  67  81 CALM      29.87S
PELLA *        CLEAR     73  70  88 CALM      29.89R
PERRY *          N/A     68  66  94 CALM      29.89R
$$

IAZ004>006-015-016-023>025-035-036-310200-
   NORTH CENTRAL IOWA

CITY           SKY/WX    TMP DP  RH WIND       PRES   REMARKS
ALGONA *       MOCLDY    72  66  83 CALM      29.88R
CLARION *      PTCLDY    70  66  88 S3        29.88R
ESTHERVILLE    PTCLDY    69  64  84 SE5       29.87R
FORT DODGE *   CLEAR     68  63  83 SW3       29.89R
MASON CITY     PTCLDY    69  65  86 S5        29.89R
FOREST CITY *  CLEAR     70  64  83 CALM      29.88R
IOWA FALLS *     N/A     70  64  83 CALM      29.89S
$$

IAZ007>011-017>019-026>030-037>042-050>054-066-310200-
   NORTHEAST IOWA

CITY           SKY/WX    TMP DP  RH WIND       PRES   REMARKS
CEDAR RAPIDS   PTCLDY    71  69  93 S3        29.88R
CHARLES CITY * PTCLDY    70  66  88 CALM      29.88R
CLINTON *      CLEAR     72  66  83 W6        29.90R
DECORAH *      CLOUDY    72  68  88 CALM      29.86R
DUBUQUE        CLEAR     70  65  84 W5        29.89R
MONTICELLO *   CLEAR     72  70  94 CALM      29.88R
OELWEIN *      CLEAR     72  66  83 SW5       29.89R
WATERLOO       CLEAR     72  65  78 W6        29.87R
$$

IAZ064-065-067-068-078-310200-
   EAST CENTRAL IOWA

CITY           SKY/WX    TMP DP  RH WIND       PRES   REMARKS
DAVENPORT      CLEAR     72  67  84 W5        29.89R
IOWA CITY      CLEAR     75  68  78 SW3       29.89R
MT. PLEASANT * CLEAR     75  66  73 CALM      29.90R
MUSCATINE *    CLEAR     73  68  83 W3        29.88R
QUAD CITIES    CLEAR     74  69  85 W3        29.87R
$$

IAZ062-063-075>077-085>089-095>099-310200-
   SOUTHEAST IOWA

CITY           SKY/WX    TMP DP  RH WIND       PRES   REMARKS
BURLINGTON     LGT RAIN  76  69  79 CALM      29.89R
FAIRFIELD *    CLEAR     72  68  88 CALM      29.90R
FORT MADISON * CLEAR     75  72  88 CALM      29.90R
KEOKUK *       CLEAR     75  70  83 NW3       29.89R
OSKALOOSA *      N/A     73  70  88 SE6       29.89R
CENTERVILLE *  CLEAR     73  72  94 S5        29.91R
OTTUMWA        CLEAR     72  68  87 SE3       29.88S
WASHINGTON *   CLEAR     72  68  88 SW5       29.89R
$$

ABBREVIATIONS USED IN REMARKS
   TC - TEMPERATURES IN CELSIUS
  WCI - WIND CHILL INDEX
   HX - HEAT INDEX
  VSB - VISIBILITY
$$



USA.gov is the U.S. government's official web portal to all federal, state and local government web resources and services.